Miscellaneous Local Product
Issued by NWS Hastings, NE

Home | Current Version | Previous Version | Graphics & Text | Print | Product List | Glossary On
Versions: 1 2 3 4 5 6 7 8 9 10 11 12 13 14 15 16 17 18 19 20 21 22 23 24 25 26 27 28 29 30 31 32 33 34 35 36 37 38 39 40 41 42 43 44 45 46 47 48 49 50
000
AXUS43 KGID 272002
MISGRI

GID CWA HOURLY WEATHER ROUNDUP
NATIONAL WEATHER SERVICE HASTINGS NE
300 PM CDT WED MAY 27 2015

NOTE: "FAIR" INDICATES FEW OR NO CLOUDS BELOW 12,000 FEET WITH NO
SIGNIFICANT WEATHER AND/OR OBSTRUCTIONS TO VISIBILITY.

...SOUTH CENTRAL NEBRASKA...

CITY           SKY/WX    TMP DP  RH WIND       PRES   REMARKS
GRAND ISLAND   PTSUNNY   81  43  26 SE13G20   30.07F
HASTINGS       PTSUNNY   76  44  32 S8        30.08S
KEARNEY        PTSUNNY   75  48  38 S17       30.08S
ORD            PTSUNNY   77  47  34 S14       30.05F
YORK           PTSUNNY   81  43  26 S5        30.08F
AURORA         PTSUNNY   80  42  25 SE6G12    30.08S
LEXINGTON      PTSUNNY   73  55  53 S20       30.07S
HOLDREGE       CLOUDY    74  51  44 SE12      30.09R
HEBRON         MOSUNNY   81  39  22 SE7       30.08F

...NEBRASKA PANHANDLE...

CITY           SKY/WX    TMP DP  RH WIND       PRES   REMARKS
CHADRON        PTSUNNY   72  56  57 S7        29.95F
ALLIANCE       MOSUNNY   73  53  49 S17       30.01S
SCOTTSBLUFF    TSTM      56  52  86 NE8       30.04R
SIDNEY         MOSUNNY   73  57  57 S10       30.04F

...WESTERN AND NORTH CENTRAL NEBRASKA...

CITY           SKY/WX    TMP DP  RH WIND       PRES   REMARKS
VALENTINE      PTSUNNY   77  48  35 SE20G28   30.02F
AINSWORTH      CLOUDY    72  48  42 S14       30.06S
ONEILL         MOSUNNY   80  47  31 S6G16     30.06F
BROKEN BOW     CLOUDY    76  51  41 SE14      30.06F
IMPERIAL       MOSUNNY   70  56  61 S16G26    30.03F
NORTH PLATTE   MOSUNNY   76  56  49 SE15G26   30.04F
MCCOOK         PTSUNNY   72  60  66 E15       30.05F

...EASTERN NEBRASKA...

CITY           SKY/WX    TMP DP  RH WIND       PRES   REMARKS
NORFOLK        MOSUNNY   83  49  30 S7        30.05S
SO SIOUX CITY  SUNNY     83  51  33 S9        30.03S
TEKAMAH        MOSUNNY   86  55  34 SW14      30.04S
COLUMBUS       MOSUNNY   82  46  28 SW10      30.07F
ALBION         SUNNY     79  42  27 SW8       30.07S
OMAHA EPPLEY   MOSUNNY   84  51  31 SW8       30.05F
OFFUTT AFB     SUNNY     82  49  31 VRB1      30.05F
MILLARD        SUNNY     82  51  34 S5        30.06S
LINCOLN        MOSUNNY   81  48  31 S10       30.07F
NEBRASKA CITY  SUNNY     80  44  27 S6        30.08F
BEATRICE       MOSUNNY   80  48  32 SE6       30.09S
FALLS CITY     NOT AVBL

...NORTHERN KANSAS...

CITY           SKY/WX    TMP DP  RH WIND       PRES   REMARKS
GOODLAND       MOSUNNY   78  57  48 S20G30    30.02F
HILL CITY      CLOUDY    75  61  61 SE15G23   30.06F
NORTON         MOCLDY    73  52  46 SE12G17   30.06F
PHILLIPSBURG   MOSUNNY   81  57  44 SE13      30.07F
SMITH CENTER   MOSUNNY   73  57  56 SE15      30.09F
HAYS           PTSUNNY   75  59  57 SE16      30.08F
RUSSELL        CLOUDY    74  62  66 SE12      30.08F
CONCORDIA      PTSUNNY   79  53  40 SE14      30.09F
SALINA         PTSUNNY   79  58  48 SE10      30.09F
TOPEKA         MOSUNNY   81  54  39 SE13      30.09S



USA.gov is the U.S. government's official web portal to all federal, state and local government web resources and services.